Location: Clyde
(45.1830°S, 169.3170°E)
Time: 05:23:49
(UTC+13:00)

Cosmos 1606 - Pass Details

Date: 24 January 2019
Orbit: 504 x 528 km, 82.5° (Epoch: 16 October)

Event Time Altitude Azimuth Distance (km) Brightness Sun altitude
Exits shadow 23:30:48 39° 10° (N) 822 3.2 -17.8°
Maximum altitude 23:32:09 71° 84° (E) 573 2.7 -17.9°
Drops below altitude 10° 23:36:07 10° 167° (SSE) 1,810 6.0 -18.3°
Sets 23:38:18 0° 169° (S) 2,706 7.0 -18.5°
